TimeEEST,TemperatureF,Dew PointF,Humidity,Sea Level PressureIn,VisibilityMPH,Wind Direction,Wind SpeedMPH,Gust SpeedMPH,PrecipitationIn,Events,Conditions,WindDirDegrees,DateUTC
12:50 AM,51.8,42.8,71,30.24,6.2,SW,3.5,-,N/A,,Scattered Clouds,220,2012-10-03 21:50:00
1:50 AM,48.2,42.8,82,30.21,6.2,Variable,2.3,-,N/A,,Scattered Clouds,0,2012-10-03 22:50:00
3:00 AM,48,41,69,,6,Calm,Calm,,,,Partly Cloudy,,2012-10-04 00:00:00
3:50 AM,48.2,41.0,76,30.18,6.2,SSW,1.2,-,N/A,,Scattered Clouds,200,2012-10-04 00:50:00
5:50 AM,42.8,41.0,93,30.18,6.2,Variable,2.3,-,N/A,,Partly Cloudy,0,2012-10-04 02:50:00
6:50 AM,42.8,41.0,93,30.18,6.2,Variable,1.2,-,N/A,,Partly Cloudy,0,2012-10-04 03:50:00
7:50 AM,51.8,44.6,76,30.18,-9999.0,Calm,Calm,-,N/A,,Clear,0,2012-10-04 04:50:00
8:50 AM,55.4,42.8,63,30.18,-9999.0,NW,3.5,-,N/A,,Clear,310,2012-10-04 05:50:00
9:00 AM,56,44,53,,6,NW,3.5,,,,,310,2012-10-04 06:00:00
9:50 AM,62.6,42.8,48,30.18,6.2,Variable,1.2,-,N/A,,Partly Cloudy,0,2012-10-04 06:50:00
10:50 AM,66.2,41.0,40,30.18,6.2,Variable,4.6,-,N/A,,Partly Cloudy,0,2012-10-04 07:50:00
11:50 AM,69.8,41.0,35,30.15,6.2,SSE,4.6,-,N/A,,Scattered Clouds,160,2012-10-04 08:50:00
12:50 PM,75.2,37.4,25,30.12,6.2,SW,11.5,-,N/A,,Scattered Clouds,230,2012-10-04 09:50:00
2:50 PM,62.6,42.8,48,30.09,6.2,East,10.4,-,N/A,Thunderstorm,Thunderstorm,80,2012-10-04 11:50:00
3:00 PM,62,43,38,,6,East,10.4,,,Thunderstorm,Thunderstorm,80,2012-10-04 12:00:00
3:50 PM,60.8,44.6,55,30.09,6.2,North,5.8,-,N/A,Rain-Thunderstorm,Light Thunderstorms and Rain,10,2012-10-04 12:50:00
4:50 PM,62.6,44.6,52,30.09,6.2,SE,9.2,-,N/A,Thunderstorm,Thunderstorm,140,2012-10-04 13:50:00
5:50 PM,55.4,44.6,67,30.12,6.2,North,10.4,-,N/A,Thunderstorm,Thunderstorm,360,2012-10-04 14:50:00
6:50 PM,53.6,42.8,67,30.12,6.2,ENE,9.2,-,N/A,Thunderstorm,Thunderstorm,70,2012-10-04 15:50:00
7:50 PM,51.8,44.6,76,30.12,6.2,ENE,15.0,-,N/A,Thunderstorm,Thunderstorm,70,2012-10-04 16:50:00
8:50 PM,51.8,44.6,76,30.12,6.2,NE,15.0,-,N/A,Thunderstorm,Thunderstorm,50,2012-10-04 17:50:00
9:00 PM,52,44,66,,6,NE,15.0,,,Thunderstorm,Thunderstorm,50,2012-10-04 18:00:00
9:50 PM,51.8,44.6,76,30.15,6.2,NE,11.5,-,N/A,Thunderstorm,Thunderstorm,40,2012-10-04 18:50:00
10:50 PM,50.0,44.6,82,30.15,6.2,NE,6.9,-,N/A,Thunderstorm,Thunderstorm,40,2012-10-04 19:50:00
11:50 PM,50.0,42.8,76,30.15,6.2,ENE,10.4,-,N/A,,Scattered Clouds,70,2012-10-04 20:50:00